Hourly Weather Kozly

Today, 26 January, Tuesday

Time Temperature Precipitation Wind Pressure Humidity
00:00 -3°C° 0.5 mm 7 mps 733 mmHg 96%
01:00 -3°C° 0.5 mm 7 mps 733 mmHg 96%
02:00 -5°C° 0.5 mm 8 mps 733 mmHg 96%
03:00 -4°C° 0.5 mm 7 mps 734 mmHg 95%
04:00 -4°C° 0.5 mm 7 mps 734 mmHg 94%
05:00 -4°C° 0.5 mm 7 mps 735 mmHg 93%
06:00 -4°C° 0.1 mm 7 mps 735 mmHg 92%
07:00 -4°C° 0.1 mm 7 mps 736 mmHg 91%
08:00 -4°C° 0 mm 7 mps 736 mmHg 89%
09:00 -4°C° 0 mm 7 mps 737 mmHg 89%
10:00 -4°C° 0 mm 7 mps 737 mmHg 88%
11:00 -4°C° 0 mm 7 mps 737 mmHg 88%
12:00 -4°C° 0.1 mm 7 mps 738 mmHg 88%
13:00 -3°C° 0.1 mm 7 mps 738 mmHg 87%
14:00 -3°C° 0 mm 7 mps 738 mmHg 86%
15:00 -3°C° 0 mm 6 mps 739 mmHg 87%
16:00 -3°C° 0 mm 6 mps 739 mmHg 87%
17:00 -4°C° 0 mm 5 mps 739 mmHg 87%
18:00 -4°C° 0 mm 5 mps 739 mmHg 88%
19:00 -4°C° 0 mm 5 mps 739 mmHg 88%
20:00 -5°C° 0 mm 5 mps 740 mmHg 89%
21:00 -5°C° 0 mm 5 mps 740 mmHg 90%
22:00 -5°C° 0 mm 4 mps 740 mmHg 91%
23:00 -7°C° 0 mm 4 mps 740 mmHg 91%

Tomorrow, 27 January, Wednesday

Time Temperature Precipitation Wind Pressure Humidity
00:00 -7°C° 0 mm 4 mps 740 mmHg 91%
01:00 -7°C° 0 mm 4 mps 740 mmHg 90%
02:00 -7°C° 0 mm 4 mps 740 mmHg 90%
03:00 -7°C° 0 mm 4 mps 741 mmHg 90%
04:00 -7°C° 0 mm 4 mps 741 mmHg 91%
05:00 -7°C° 0 mm 4 mps 741 mmHg 92%
06:00 -7°C° 0 mm 4 mps 741 mmHg 93%
07:00 -7°C° 0 mm 4 mps 740 mmHg 93%
08:00 -7°C° 0 mm 4 mps 740 mmHg 93%
09:00 -5°C° 0 mm 4 mps 740 mmHg 92%
10:00 -4°C° 0 mm 4 mps 741 mmHg 91%
11:00 -4°C° 0 mm 5 mps 741 mmHg 91%
12:00 -4°C° 0.1 mm 5 mps 741 mmHg 90%
13:00 -2°C° 0.1 mm 4 mps 740 mmHg 89%
14:00 -2°C° 0.1 mm 4 mps 740 mmHg 88%
15:00 -3°C° 0.1 mm 4 mps 740 mmHg 90%
16:00 -3°C° 0.1 mm 4 mps 740 mmHg 92%
17:00 -4°C° 0.1 mm 4 mps 740 mmHg 94%
18:00 -4°C° 0.1 mm 4 mps 740 mmHg 94%
19:00 -4°C° 0.1 mm 4 mps 740 mmHg 94%
20:00 -5°C° 0.1 mm 4 mps 740 mmHg 95%
21:00 -5°C° 0 mm 3 mps 740 mmHg 94%
22:00 -5°C° 0 mm 3 mps 740 mmHg 94%
23:00 -5°C° 0 mm 3 mps 740 mmHg 94%

Day after tomorrow, 28 January, Thursday

Time Temperature Precipitation Wind Pressure Humidity
00:00 -5°C° 0 mm 3 mps 740 mmHg 94%
01:00 -5°C° 0 mm 3 mps 740 mmHg 94%
02:00 -5°C° 0 mm 3 mps 740 mmHg 94%
03:00 -6°C° 0.1 mm 3 mps 740 mmHg 93%
04:00 -6°C° 0.1 mm 3 mps 740 mmHg 93%
05:00 -6°C° 0.1 mm 3 mps 740 mmHg 93%
06:00 -6°C° 0 mm 3 mps 740 mmHg 92%
07:00 -7°C° 0 mm 3 mps 739 mmHg 92%
08:00 -7°C° 0 mm 3 mps 739 mmHg 91%
09:00 -6°C° 0 mm 3 mps 739 mmHg 89%
10:00 -6°C° 0 mm 3 mps 739 mmHg 88%
11:00 -5°C° 0 mm 3 mps 739 mmHg 86%
12:00 -4°C° 0 mm 3 mps 739 mmHg 86%
13:00 -4°C° 0 mm 3 mps 738 mmHg 85%
14:00 -2°C° 0 mm 2 mps 738 mmHg 84%
15:00 -3°C° 0 mm 2 mps 737 mmHg 86%
16:00 -3°C° 0 mm 2 mps 737 mmHg 87%
17:00 -4°C° 0 mm 2 mps 736 mmHg 89%
18:00 -5°C° 0 mm 3 mps 736 mmHg 87%
19:00 -5°C° 0 mm 3 mps 735 mmHg 85%
20:00 -5°C° 0 mm 3 mps 735 mmHg 84%
21:00 -5°C° 0 mm 4 mps 735 mmHg 83%
22:00 -5°C° 0 mm 4 mps 734 mmHg 82%
23:00 -4°C° 0 mm 4 mps 734 mmHg 81%

29 January, Friday

Time Temperature Precipitation Wind Pressure Humidity
00:00 -4°C° 0.2 mm 4 mps 734 mmHg 83%
01:00 -5°C° 0.2 mm 5 mps 733 mmHg 85%
02:00 -5°C° 0.2 mm 5 mps 733 mmHg 87%
03:00 -4°C° 0.3 mm 5 mps 733 mmHg 90%
04:00 -4°C° 0.3 mm 5 mps 732 mmHg 92%
05:00 -4°C° 0.3 mm 5 mps 732 mmHg 95%
06:00 -3°C° 0.3 mm 4 mps 732 mmHg 94%
07:00 -4°C° 0.3 mm 4 mps 733 mmHg 94%
08:00 -4°C° 0.3 mm 4 mps 733 mmHg 94%
09:00 -5°C° 0 mm 5 mps 733 mmHg 90%
10:00 -4°C° 0 mm 5 mps 734 mmHg 86%
11:00 -4°C° 0 mm 5 mps 734 mmHg 83%
12:00 -4°C° 0 mm 5 mps 734 mmHg 82%
13:00 -4°C° 0 mm 5 mps 734 mmHg 80%
14:00 -2°C° 0 mm 5 mps 733 mmHg 79%
15:00 -3°C° 0 mm 4 mps 733 mmHg 81%
16:00 -4°C° 0 mm 3 mps 733 mmHg 83%
17:00 -4°C° 0 mm 2 mps 733 mmHg 85%
18:00 -4°C° 0 mm 2 mps 733 mmHg 84%
19:00 -4°C° 0 mm 2 mps 733 mmHg 84%
20:00 -4°C° 0 mm 2 mps 733 mmHg 84%
21:00 -2°C° 0 mm 1 mps 733 mmHg 84%
22:00 -2°C° 0 mm 1 mps 733 mmHg 84%
23:00 -3°C° 0 mm 0 mps 733 mmHg 83%

30 January, Saturday

Time Temperature Precipitation Wind Pressure Humidity
00:00 -3°C° 0 mm 0 mps 732 mmHg 84%
01:00 -3°C° 0 mm 0 mps 732 mmHg 85%
02:00 -2°C° 0 mm 1 mps 732 mmHg 85%
03:00 -3°C° 0.2 mm 0 mps 732 mmHg 87%
04:00 -3°C° 0.2 mm 0 mps 732 mmHg 89%
05:00 -3°C° 0.2 mm 0 mps 732 mmHg 91%
06:00 -4°C° 0.1 mm 0 mps 732 mmHg 91%
07:00 -4°C° 0.1 mm 0 mps 732 mmHg 91%
08:00 -5°C° 0.1 mm 0 mps 732 mmHg 91%
09:00 -4°C° 0 mm 0 mps 732 mmHg 89%
10:00 -2°C° 0 mm 1 mps 732 mmHg 88%
11:00 -1°C° 0 mm 1 mps 732 mmHg 86%
12:00 -1°C° 0 mm 1 mps 732 mmHg 85%
13:00 0°C° 0 mm 1 mps 732 mmHg 84%
14:00 0°C° 0 mm 1 mps 731 mmHg 83%
15:00 -2°C° 0 mm 2 mps 731 mmHg 87%
16:00 -2°C° 0 mm 2 mps 730 mmHg 90%
17:00 -3°C° 0 mm 2 mps 730 mmHg 93%
18:00 -3°C° 0.5 mm 2 mps 730 mmHg 94%
19:00 -3°C° 0.5 mm 2 mps 730 mmHg 95%
20:00 -2°C° 0.5 mm 2 mps 730 mmHg 95%
21:00 -3°C° 0.4 mm 2 mps 730 mmHg 95%
22:00 -4°C° 0.4 mm 3 mps 730 mmHg 96%
23:00 -4°C° 0.4 mm 3 mps 730 mmHg 96%

31 January, Sunday

Time Temperature Precipitation Wind Pressure Humidity
00:00 -5°C° 1 mm 3 mps 730 mmHg 96%
01:00 -5°C° 1 mm 3 mps 730 mmHg 96%
02:00 -7°C° 1 mm 4 mps 730 mmHg 96%
03:00 -6°C° 0.7 mm 3 mps 731 mmHg 96%
04:00 -6°C° 0.7 mm 3 mps 731 mmHg 96%
05:00 -6°C° 0.7 mm 3 mps 731 mmHg 96%
06:00 -6°C° 0.2 mm 3 mps 731 mmHg 96%
07:00 -6°C° 0.2 mm 3 mps 732 mmHg 95%
08:00 -7°C° 0.2 mm 3 mps 732 mmHg 95%
09:00 -6°C° 0.2 mm 3 mps 733 mmHg 95%
10:00 -6°C° 0.2 mm 3 mps 733 mmHg 94%
11:00 -6°C° 0.2 mm 3 mps 734 mmHg 93%
12:00 -5°C° 0 mm 4 mps 734 mmHg 91%
13:00 -5°C° 0 mm 4 mps 734 mmHg 89%
14:00 -5°C° 0 mm 4 mps 734 mmHg 88%
15:00 -5°C° 0 mm 4 mps 734 mmHg 89%
16:00 -6°C° 0 mm 3 mps 734 mmHg 90%
17:00 -5°C° 0 mm 2 mps 735 mmHg 91%
18:00 -6°C° 0 mm 2 mps 735 mmHg 93%
19:00 -7°C° 0 mm 3 mps 735 mmHg 94%
20:00 -8°C° 0 mm 3 mps 736 mmHg 95%
21:00 -9°C° 0 mm 3 mps 736 mmHg 95%
22:00 -10°C° 0 mm 3 mps 736 mmHg 94%
23:00 -10°C° 0 mm 3 mps 736 mmHg 94%
Show more